TimeCDT,TemperatureF,Dew PointF,Humidity,Sea Level PressureIn,VisibilityMPH,Wind Direction,Wind SpeedMPH,Gust SpeedMPH,PrecipitationIn,Events,Conditions,WindDirDegrees,DateUTC
12:15 AM,48.2,30.2,50,29.96,10.0,North,4.6,-,N/A,,Unknown,10,2012-10-31 05:15:00
12:35 AM,48.2,32.0,54,29.96,10.0,North,5.8,-,N/A,,Unknown,360,2012-10-31 05:35:00
12:55 AM,48.2,30.2,50,29.96,10.0,North,3.5,-,N/A,,Unknown,360,2012-10-31 05:55:00
1:15 AM,46.4,32.0,57,29.96,10.0,Calm,Calm,-,N/A,,Unknown,0,2012-10-31 06:15:00
1:55 AM,41.0,33.8,76,29.96,10.0,WNW,4.6,-,N/A,,Unknown,290,2012-10-31 06:55:00
2:15 AM,41.0,32.0,70,29.96,10.0,WSW,4.6,-,N/A,,Unknown,250,2012-10-31 07:15:00
2:35 AM,39.2,33.8,81,29.96,10.0,WSW,4.6,-,N/A,,Unknown,250,2012-10-31 07:35:00
2:55 AM,41.0,32.0,70,29.96,10.0,WNW,6.9,-,N/A,,Unknown,290,2012-10-31 07:55:00
3:15 AM,41.0,32.0,70,29.96,10.0,WNW,6.9,-,N/A,,Unknown,290,2012-10-31 08:15:00
3:35 AM,44.6,28.4,53,29.96,10.0,NW,8.1,-,N/A,,Unknown,310,2012-10-31 08:35:00
3:55 AM,44.6,28.4,53,29.96,10.0,NW,6.9,-,N/A,,Unknown,320,2012-10-31 08:55:00
4:15 AM,42.8,30.2,61,29.96,10.0,NW,6.9,-,N/A,,Unknown,310,2012-10-31 09:15:00
4:35 AM,41.0,30.2,65,29.97,10.0,WNW,6.9,-,N/A,,Unknown,300,2012-10-31 09:35:00
4:55 AM,42.8,32.0,66,29.97,10.0,WNW,5.8,-,N/A,,Unknown,300,2012-10-31 09:55:00
5:15 AM,44.6,32.0,61,29.97,10.0,WNW,4.6,-,N/A,,Unknown,300,2012-10-31 10:15:00
5:35 AM,44.6,32.0,61,29.97,10.0,WNW,4.6,-,N/A,,Unknown,300,2012-10-31 10:35:00
5:55 AM,44.6,32.0,61,29.97,10.0,NW,4.6,-,N/A,,Unknown,310,2012-10-31 10:55:00
6:15 AM,42.8,33.8,70,29.97,10.0,NW,4.6,-,N/A,,Unknown,310,2012-10-31 11:15:00
6:35 AM,44.6,32.0,61,29.97,10.0,NW,5.8,-,N/A,,Unknown,310,2012-10-31 11:35:00
6:55 AM,44.6,32.0,61,29.97,10.0,NNW,6.9,-,N/A,,Unknown,340,2012-10-31 11:55:00
7:15 AM,44.6,32.0,61,29.97,10.0,NNW,6.9,-,N/A,,Unknown,340,2012-10-31 12:15:00
7:35 AM,44.6,32.0,61,29.97,10.0,NNW,3.5,-,N/A,,Unknown,330,2012-10-31 12:35:00
7:55 AM,42.8,33.8,70,29.98,10.0,South,3.5,-,N/A,,Unknown,190,2012-10-31 12:55:00
8:15 AM,42.8,37.4,81,29.99,10.0,WSW,3.5,-,N/A,,Unknown,240,2012-10-31 13:15:00
8:35 AM,44.6,33.8,66,30.00,10.0,WNW,3.5,-,N/A,,Unknown,290,2012-10-31 13:35:00
8:55 AM,46.4,32.0,57,30.00,10.0,WNW,3.5,-,N/A,,Unknown,290,2012-10-31 13:55:00
9:15 AM,46.4,32.0,57,30.00,10.0,West,3.5,-,N/A,,Unknown,260,2012-10-31 14:15:00
9:35 AM,48.2,32.0,54,30.01,10.0,North,4.6,-,N/A,,Unknown,360,2012-10-31 14:35:00
9:55 AM,50.0,28.4,43,30.01,10.0,NW,9.2,-,N/A,,Unknown,320,2012-10-31 14:55:00
10:15 AM,50.0,28.4,43,30.01,10.0,NNW,9.2,-,N/A,,Unknown,330,2012-10-31 15:15:00
10:35 AM,53.6,28.4,38,30.02,10.0,NNW,5.8,-,N/A,,Unknown,330,2012-10-31 15:35:00
10:55 AM,53.6,28.4,38,30.01,10.0,NNW,8.1,-,N/A,,Unknown,330,2012-10-31 15:55:00
11:15 AM,55.4,28.4,36,30.01,10.0,NW,6.9,-,N/A,,Unknown,310,2012-10-31 16:15:00
11:35 AM,55.4,26.6,33,30.01,10.0,WNW,10.4,-,N/A,,Unknown,300,2012-10-31 16:35:00
11:55 AM,57.2,26.6,31,30.01,10.0,WNW,9.2,-,N/A,,Unknown,300,2012-10-31 16:55:00
12:15 PM,57.2,26.6,31,30.00,10.0,West,4.6,-,N/A,,Unknown,280,2012-10-31 17:15:00
12:35 PM,59.0,24.8,27,29.99,10.0,NNW,5.8,-,N/A,,Unknown,330,2012-10-31 17:35:00
12:55 PM,60.8,24.8,25,29.98,10.0,North,10.4,-,N/A,,Unknown,350,2012-10-31 17:55:00
1:15 PM,62.6,26.6,26,29.98,10.0,NNW,10.4,-,N/A,,Unknown,340,2012-10-31 18:15:00
1:35 PM,62.6,26.6,26,29.97,10.0,NW,11.5,-,N/A,,Unknown,310,2012-10-31 18:35:00
1:55 PM,62.6,26.6,26,29.96,10.0,WNW,11.5,-,N/A,,Unknown,300,2012-10-31 18:55:00
2:15 PM,64.4,26.6,24,29.95,10.0,NNW,6.9,-,N/A,,Unknown,330,2012-10-31 19:15:00
2:35 PM,64.4,28.4,26,29.95,10.0,NW,16.1,-,N/A,,Unknown,320,2012-10-31 19:35:00
2:55 PM,64.4,26.6,24,29.94,10.0,NW,10.4,-,N/A,,Unknown,320,2012-10-31 19:55:00
3:35 PM,66.2,28.4,24,29.94,10.0,NNW,13.8,-,N/A,,Unknown,340,2012-10-31 20:35:00
3:55 PM,66.2,28.4,24,29.94,10.0,NW,8.1,-,N/A,,Unknown,310,2012-10-31 20:55:00
4:15 PM,66.2,30.2,26,29.94,10.0,NW,10.4,-,N/A,,Unknown,320,2012-10-31 21:15:00
4:35 PM,66.2,30.2,26,29.94,10.0,NNW,6.9,-,N/A,,Unknown,340,2012-10-31 21:35:00
4:55 PM,64.4,28.4,26,29.94,10.0,NNW,6.9,-,N/A,,Unknown,330,2012-10-31 21:55:00
5:15 PM,64.4,32.0,30,29.94,10.0,NNW,4.6,-,N/A,,Unknown,330,2012-10-31 22:15:00
5:35 PM,62.6,32.0,32,29.94,10.0,NNW,5.8,-,N/A,,Unknown,330,2012-10-31 22:35:00
5:55 PM,59.0,32.0,36,29.94,10.0,NW,4.6,-,N/A,,Unknown,310,2012-10-31 22:55:00
6:15 PM,57.2,32.0,38,29.95,9.0,NW,4.6,-,N/A,,Unknown,310,2012-10-31 23:15:00
6:35 PM,55.4,33.8,44,29.95,10.0,NW,5.8,-,N/A,,Unknown,310,2012-10-31 23:35:00
7:15 PM,55.4,33.8,44,29.96,10.0,NW,5.8,-,N/A,,Unknown,310,2012-11-01 00:15:00
7:35 PM,53.6,35.6,51,29.97,10.0,NW,4.6,-,N/A,,Unknown,310,2012-11-01 00:35:00
7:55 PM,51.8,35.6,54,29.97,10.0,NW,6.9,-,N/A,,Unknown,310,2012-11-01 00:55:00
8:15 PM,51.8,33.8,50,29.98,10.0,NW,6.9,-,N/A,,Unknown,320,2012-11-01 01:15:00
8:35 PM,53.6,32.0,44,29.99,10.0,NW,8.1,-,N/A,,Unknown,320,2012-11-01 01:35:00
8:55 PM,53.6,33.8,47,29.99,10.0,NNW,6.9,-,N/A,,Unknown,330,2012-11-01 01:55:00
9:15 PM,53.6,32.0,44,29.99,10.0,NNW,8.1,-,N/A,,Unknown,330,2012-11-01 02:15:00
9:35 PM,50.0,32.0,50,29.99,10.0,NNW,5.8,-,N/A,,Unknown,330,2012-11-01 02:35:00
9:55 PM,50.0,32.0,50,30.00,10.0,NNW,5.8,-,N/A,,Unknown,330,2012-11-01 02:55:00
10:15 PM,46.4,35.6,66,30.00,10.0,NW,3.5,-,N/A,,Unknown,320,2012-11-01 03:15:00
10:35 PM,48.2,33.8,58,30.01,10.0,North,3.5,-,N/A,,Unknown,350,2012-11-01 03:35:00
10:55 PM,46.4,35.6,66,30.01,10.0,Calm,Calm,-,N/A,,Unknown,0,2012-11-01 03:55:00
11:15 PM,44.6,35.6,71,30.00,10.0,Calm,Calm,-,N/A,,Unknown,0,2012-11-01 04:15:00
11:35 PM,44.6,35.6,71,30.01,10.0,Calm,Calm,-,N/A,,Unknown,0,2012-11-01 04:35:00
11:55 PM,44.6,35.6,71,30.01,10.0,Calm,Calm,-,N/A,,Unknown,0,2012-11-01 04:55:00